sat.trackr.live / text

‹ back to catalog

PRAETORIAN SDA_620

NORAD 65583 · 2025-203U

PAYLOAD ACTIVE UNKNOWN

§ Identity

Operator
Country
US
Launch date
2025-09-10
Launch site
AFWTR
Launch vehicle
Mass (kg)
RCS (m²)

Purposes: military

External: N2YO · Heavens-Above · Gunter

§ Orbital elements

Epoch: 2026-09-19T19:06:07.987392Z

Period
104.11 min
Inclination
81.2998°
Eccentricity
0.0006419
Mean motion
13.83212522 rev/d
Perigee alt
947.8 km
Apogee alt
957.2 km
Semi-major
7,330.7 km
B*
1.4047e-4
RAAN
283.3289°
Arg perigee
296.4320°
Mean anomaly
63.6177°
Rev number
5,177

§ Raw data

PRAETORIAN SDA_6201 65583U 25203U   26262.79592578  .00000166  00000+0  14047-3 0  99902 65583  81.2998 283.3289 0006419 296.4320  63.6177 13.83212522 51776

JSON: /api/v1/satellites/65583 · /tle

For live sub-satellite position, see the globe view (requires WebGL).

§ Visibility from observer

Set your observer location to see the next 7 days of passes ≥ 10°. The values pass through the URL so the page stays shareable.

No JS? Fill the form by hand. The geolocation button needs JavaScript.